Torna al catalogo

BS-2B

YURI 2B

AttivoComunicazioniGEO
NORAD 16597·PAYLOAD·🇯🇵 Japan

Lanciato Feb 12, 1986 da Tanegashima Space Center

Loading…

TLE

AggiornatoSource: Space-Track

Epoca: Sep 13, 2026, 17:41 UTC

1 16597U 86016A   26256.73730788 -.00000055  00000-0  00000-0 0  9994
2 16597  12.1684 331.7102 0015746 229.3481 145.7355  0.99287166129001

Traccia BS-2B in tempo reale con AllMySat

Download on the App Store